{"data":{"norad_id":64863,"epoch":"2026-09-20T20:00:52.213824Z","epoch_age_seconds":95367,"freshness":"FRESH","line1":"1 64863U 25152X   26263.83393766  .00010705  00000+0  33332-3 0  9995","line2":"2 64863  97.2842 114.3732 0002287  89.2554 270.8950 15.33457073 64878","mean_motion":15.33457073,"eccentricity":0.0002287,"inclination_deg":97.2842,"raan_deg":114.3732,"arg_perigee_deg":89.2554,"mean_anomaly_deg":270.895,"bstar":0.00033332,"rev_number":6487,"period_min":93.905465327623,"perigee_km":463.942112519,"apogee_km":467.07239540076,"semimajor_km":6843.6442539599,"source":"CELESTRAK","updated_at":"2026-09-21T09:00:35.452905Z"}}